QPF
0.01 0.00 0.00 0.00 0.01 0.01 0.02 0.04 0.05 0.06 0.07 0.08 0.11 0.12 0.11 0.10 0.07 0.08 0.08 0.08 0.08 0.09 0.07 0.04 0.03 0.04 0.03 0.02 0.02 0.03 0.04 0.04 0.05 0.06 0.05 0.04 0.03 0.03 0.02 0.02 0.02 0.03 0.03
0.00 0.00 0.00 0.00 0.00 0.01 0.03 0.09 0.11 0.07 0.07 0.11 0.14 0.12 0.10 0.09 0.07 0.05 0.06 0.09 0.08 0.08 0.07 0.04 0.04 0.04 0.04 0.04 0.03 0.03 0.04 0.04 0.05 0.06 0.06 0.04 0.03 0.03 0.02 0.02 0.02 0.03 0.03
0.01 0.01 0.01 0.01 0.01 0.03 0.04 0.08 0.14 0.13 0.09 0.09 0.13 0.13 0.11 0.07 0.05 0.05 0.06 0.09 0.09 0.08 0.07 0.05 0.04 0.03 0.03 0.03 0.04 0.05 0.04 0.03 0.04 0.05 0.05 0.03 0.02 0.02 0.02 0.02 0.02 0.03 0.03
0.02 0.02 0.02 0.02 0.01 0.02 0.04 0.05 0.06 0.06 0.06 0.05 0.08 0.09 0.12 0.11 0.07 0.07 0.07 0.10 0.10 0.08 0.07 0.07 0.05 0.04 0.04 0.05 0.05 0.05 0.05 0.04 0.03 0.05 0.05 0.04 0.02 0.02 0.01 0.01 0.01 0.02 0.03
0.02 0.04 0.05 0.04 0.03 0.02 0.03 0.04 0.03 0.03 0.03 0.03 0.05 0.05 0.09 0.09 0.06 0.05 0.06 0.07 0.08 0.08 0.07 0.06 0.05 0.05 0.07 0.06 0.06 0.06 0.05 0.04 0.03 0.03 0.04 0.06 0.05 0.04 0.03 0.01 0.01 0.01 0.02
0.03 0.04 0.04 0.04 0.02 0.02 0.04 0.04 0.03 0.01 0.01 0.02 0.02 0.03 0.04 0.03 0.03 0.03 0.05 0.07 0.08 0.08 0.09 0.08 0.07 0.06 0.06 0.06 0.05 0.06 0.06 0.05 0.04 0.03 0.03 0.06 0.06 0.06 0.05 0.03 0.03 0.02 0.02
0.06 0.04 0.03 0.02 0.02 0.02 0.05 0.07 0.05 0.03 0.02 0.02 0.02 0.03 0.03 0.02 0.02 0.03 0.05 0.07 0.07 0.07 0.08 0.09 0.08 0.06 0.05 0.06 0.07 0.06 0.04 0.04 0.04 0.04 0.05 0.05 0.04 0.05 0.05 0.05 0.05 0.04 0.05
0.07 0.06 0.03 0.02 0.02 0.04 0.10 0.15 0.11 0.06 0.06 0.05 0.05 0.05 0.04 0.04 0.04 0.05 0.07 0.09 0.07 0.07 0.07 0.06 0.06 0.06 0.05 0.05 0.06 0.06 0.07 0.07 0.06 0.07 0.07 0.07 0.07 0.06 0.05 0.04 0.04 0.03 0.03
0.07 0.04 0.03 0.03 0.05 0.11 0.11 0.09 0.05 0.05 0.07 0.07 0.07 0.05 0.04 0.04 0.04 0.05 0.05 0.06 0.06 0.06 0.05 0.04 0.04 0.05 0.04 0.04 0.04 0.04 0.06 0.07 0.06 0.06 0.05 0.05 0.05 0.05 0.04 0.04 0.04 0.04 0.02
0.02 0.03 0.03 0.03 0.03 0.04 0.03 0.02 0.02 0.03 0.04 0.05 0.04 0.03 0.02 0.02 0.02 0.02 0.02 0.02 0.03 0.03 0.05 0.04 0.03 0.04 0.04 0.04 0.04 0.05 0.06 0.09 0.09 0.09 0.07 0.05 0.04 0.05 0.06 0.06 0.05 0.05 0.03
0.02 0.02 0.02 0.02 0.01 0.01 0.01 0.01 0.01 0.02 0.02 0.02 0.01 0.01 0.01 0.01 0.01 0.01 0.01 0.01 0.01 0.02 0.02 0.04 0.04 0.05 0.05 0.05 0.06 0.07 0.07 0.07 0.08 0.09 0.08 0.06 0.07 0.07 0.06 0.05 0.04 0.04 0.03
0.01 0.02 0.01 0.01 0.02 0.02 0.01 0.01 0.01 0.01 0.01 0.01 0.01 0.01 0.01 0.01 0.01 0.01 0.03 0.02 0.02 0.01 0.02 0.02 0.03 0.04 0.04 0.05 0.05 0.05 0.04 0.04 0.04 0.06 0.07 0.06 0.07 0.06 0.05 0.04 0.04 0.04 0.04
0.01 0.01 0.02 0.02 0.04 0.03 0.01 0.01 0.01 0.01 0.01 0.01 0.01 0.01 0.02 0.02 0.02 0.03 0.04 0.03 0.03 0.02 0.02 0.02 0.02 0.03 0.04 0.04 0.04 0.04 0.04 0.04 0.04 0.05 0.05 0.05 0.06 0.07 0.07 0.06 0.05 0.05 0.05
0.00 0.01 0.01 0.02 0.02 0.01 0.01 0.01 0.01 0.01 0.01 0.02 0.01 0.01 0.01 0.02 0.02 0.03 0.04 0.05 0.04 0.03 0.02 0.03 0.03 0.04 0.04 0.05 0.05 0.05 0.05 0.04 0.03 0.03 0.04 0.06 0.08 0.10 0.09 0.09 0.08 0.08 0.08
0.01 0.00 0.01 0.01 0.01 0.01 0.01 0.02 0.02 0.02 0.02 0.02 0.01 0.01 0.01 0.01 0.01 0.02 0.03 0.04 0.04 0.04 0.03 0.04 0.04 0.05 0.05 0.04 0.04 0.04 0.04 0.04 0.03 0.03 0.05 0.06 0.09 0.11 0.11 0.11 0.09 0.08 0.08
0.00 0.00 0.00 0.01 0.01 0.02 0.01 0.02 0.02 0.03 0.02 0.02 0.02 0.02 0.01 0.02 0.02 0.03 0.03 0.04 0.05 0.06 0.06 0.06 0.05 0.05 0.04 0.05 0.06 0.06 0.05 0.04 0.04 0.04 0.04 0.04 0.04 0.06 0.07 0.07 0.06 0.05 0.04
0.00 0.00 0.01 0.01 0.02 0.02 0.03 0.03 0.04 0.04 0.04 0.04 0.04 0.03 0.04 0.05 0.04 0.04 0.03 0.04 0.04 0.05 0.06 0.05 0.04 0.04 0.04 0.05 0.06 0.07 0.06 0.05 0.05 0.04 0.03 0.02 0.02 0.02 0.03 0.03 0.02 0.02 0.02
0.00 0.01 0.01 0.03 0.03 0.04 0.05 0.06 0.05 0.05 0.06 0.06 0.05 0.06 0.08 0.08 0.05 0.05 0.06 0.05 0.03 0.04 0.05 0.05 0.04 0.03 0.04 0.05 0.04 0.06 0.07 0.07 0.06 0.04 0.02 0.02 0.02 0.03 0.03 0.02 0.01 0.01 0.01
0.01 0.01 0.03 0.04 0.04 0.04 0.05 0.05 0.05 0.05 0.06 0.07 0.07 0.08 0.11 0.09 0.07 0.06 0.05 0.04 0.03 0.02 0.02 0.02 0.02 0.02 0.03 0.05 0.07 0.09 0.09 0.06 0.04 0.03 0.03 0.03 0.03 0.03 0.02 0.01 0.00 0.00 0.01
0.02 0.03 0.04 0.04 0.03 0.04 0.05 0.06 0.05 0.06 0.08 0.10 0.08 0.08 0.07 0.07 0.06 0.05 0.04 0.03 0.03 0.02 0.01 0.01 0.02 0.03 0.04 0.05 0.06 0.05 0.03 0.02 0.02 0.02 0.01 0.01 0.01 0.01 0.01 0.00 0.01 0.01 0.01
0.04 0.05 0.04 0.03 0.04 0.05 0.06 0.08 0.09 0.11 0.13 0.14 0.12 0.10 0.07 0.05 0.05 0.05 0.05 0.03 0.02 0.02 0.02 0.01 0.02 0.02 0.02 0.02 0.02 0.01 0.00 0.01 0.01 0.01 0.01 0.01 0.01 0.01 0.01 0.01 0.01 0.02 0.02
0.05 0.05 0.05 0.05 0.05 0.07 0.10 0.13 0.16 0.20 0.21 0.17 0.12 0.09 0.07 0.05 0.04 0.05 0.07 0.05 0.03 0.02 0.01 0.01 0.01 0.01 0.01 0.01 0.01 0.02 0.02 0.02 0.02 0.02 0.02 0.02 0.02 0.02 0.02 0.02 0.02 0.02 0.02
0.04 0.04 0.05 0.05 0.06 0.07 0.09 0.15 0.14 0.13 0.12 0.10 0.08 0.05 0.04 0.04 0.05 0.05 0.05 0.04 0.02 0.02 0.01 0.01 0.01 0.01 0.00 0.01 0.01 0.01 0.02 0.01 0.01 0.01 0.01 0.01 0.01 0.01 0.01 0.01 0.01 0.01 0.00
0.04 0.04 0.04 0.04 0.05 0.05 0.06 0.08 0.11 0.13 0.11 0.07 0.05 0.03 0.03 0.03 0.02 0.02 0.02 0.03 0.03 0.02 0.01 0.01 0.01 0.01 0.00 0.01 0.01 0.01 0.01 0.01 0.01 0.02 0.02 0.02 0.01 0.01 0.01 0.01 0.01 0.00 0.00
0.04 0.03 0.04 0.04 0.04 0.04 0.04 0.05 0.06 0.06 0.06 0.05 0.04 0.04 0.05 0.05 0.05 0.04 0.05 0.05 0.05 0.04 0.03 0.02 0.01 0.01 0.00 0.01 0.01 0.01 0.01 0.01 0.01 0.01 0.01 0.01 0.01 0.02 0.02 0.02 0.01 0.01 0.01
0.05 0.03 0.03 0.03 0.03 0.03 0.03 0.04 0.05 0.04 0.03 0.03 0.03 0.05 0.06 0.05 0.05 0.04 0.03 0.03 0.03 0.02 0.01 0.01 0.01 0.01 0.01 0.01 0.01 0.01 0.01 0.00 0.01 0.00 0.01 0.01 0.01 0.00 0.00 0.00 0.00 0.00 0.00
MSLP
1013.36 1013.72 1014.03 1014.26 1014.43 1014.57 1014.71 1014.90 1015.16 1015.49 1015.88 1016.29 1016.69 1017.03 1017.31 1017.50 1017.62 1017.71 1017.78 1017.88 1018.02 1018.20 1018.43 1018.68 1018.94 1019.18 1019.39 1019.57 1019.73 1019.88 1020.04 1020.21 1020.39 1020.57 1020.74 1020.86 1020.91 1020.90 1020.81 1020.66 1020.47 1020.29 1020.14
1013.68 1014.14 1014.51 1014.76 1014.90 1014.97 1015.02 1015.11 1015.29 1015.56 1015.91 1016.32 1016.74 1017.12 1017.41 1017.62 1017.75 1017.82 1017.88 1017.96 1018.09 1018.28 1018.53 1018.81 1019.08 1019.33 1019.53 1019.69 1019.80 1019.90 1020.00 1020.12 1020.28 1020.46 1020.64 1020.81 1020.92 1020.96 1020.91 1020.78 1020.61 1020.41 1020.22
1014.00 1014.55 1014.97 1015.24 1015.36 1015.37 1015.34 1015.33 1015.42 1015.62 1015.93 1016.32 1016.74 1017.13 1017.45 1017.67 1017.81 1017.88 1017.93 1018.01 1018.14 1018.34 1018.60 1018.90 1019.18 1019.43 1019.62 1019.73 1019.79 1019.83 1019.87 1019.96 1020.09 1020.28 1020.50 1020.73 1020.91 1021.02 1021.04 1020.96 1020.81 1020.61 1020.41
1014.29 1014.88 1015.35 1015.64 1015.75 1015.71 1015.61 1015.52 1015.52 1015.64 1015.90 1016.26 1016.67 1017.06 1017.39 1017.62 1017.76 1017.84 1017.89 1017.97 1018.11 1018.33 1018.60 1018.91 1019.20 1019.45 1019.61 1019.70 1019.72 1019.71 1019.71 1019.76 1019.89 1020.10 1020.36 1020.65 1020.91 1021.10 1021.19 1021.18 1021.07 1020.90 1020.71
1014.51 1015.13 1015.62 1015.93 1016.02 1015.96 1015.80 1015.64 1015.56 1015.62 1015.82 1016.14 1016.52 1016.90 1017.23 1017.46 1017.61 1017.69 1017.75 1017.84 1017.99 1018.21 1018.50 1018.82 1019.12 1019.37 1019.53 1019.60 1019.60 1019.57 1019.55 1019.60 1019.73 1019.96 1020.26 1020.60 1020.93 1021.20 1021.36 1021.42 1021.37 1021.24 1021.07
1014.64 1015.26 1015.76 1016.07 1016.17 1016.08 1015.89 1015.68 1015.56 1015.56 1015.71 1015.99 1016.33 1016.69 1017.00 1017.23 1017.37 1017.45 1017.52 1017.61 1017.77 1018.01 1018.31 1018.65 1018.97 1019.23 1019.40 1019.48 1019.49 1019.46 1019.44 1019.49 1019.64 1019.89 1020.22 1020.60 1020.97 1021.29 1021.52 1021.63 1021.63 1021.56 1021.44
1014.70 1015.29 1015.78 1016.09 1016.19 1016.10 1015.90 1015.67 1015.52 1015.48 1015.59 1015.83 1016.15 1016.48 1016.77 1016.98 1017.12 1017.19 1017.26 1017.36 1017.52 1017.76 1018.08 1018.43 1018.77 1019.06 1019.26 1019.37 1019.41 1019.41 1019.41 1019.48 1019.64 1019.90 1020.24 1020.64 1021.03 1021.37 1021.62 1021.77 1021.83 1021.80 1021.74
1014.69 1015.24 1015.72 1016.02 1016.13 1016.05 1015.85 1015.63 1015.47 1015.42 1015.52 1015.73 1016.02 1016.32 1016.59 1016.79 1016.91 1016.98 1017.04 1017.13 1017.30 1017.54 1017.86 1018.23 1018.60 1018.92 1019.16 1019.31 1019.39 1019.43 1019.48 1019.57 1019.74 1020.00 1020.33 1020.71 1021.08 1021.41 1021.66 1021.83 1021.91 1021.94 1021.95
1014.65 1015.16 1015.61 1015.91 1016.02 1015.96 1015.79 1015.59 1015.45 1015.42 1015.51 1015.71 1015.99 1016.28 1016.53 1016.71 1016.82 1016.88 1016.93 1017.01 1017.17 1017.40 1017.73 1018.10 1018.48 1018.83 1019.11 1019.31 1019.45 1019.54 1019.63 1019.75 1019.93 1020.18 1020.48 1020.81 1021.14 1021.42 1021.64 1021.79 1021.89 1021.96 1022.02
1014.63 1015.10 1015.51 1015.79 1015.91 1015.87 1015.74 1015.58 1015.48 1015.48 1015.60 1015.81 1016.08 1016.37 1016.61 1016.78 1016.88 1016.93 1016.96 1017.03 1017.17 1017.39 1017.70 1018.06 1018.45 1018.82 1019.14 1019.39 1019.58 1019.73 1019.86 1020.01 1020.20 1020.43 1020.69 1020.96 1021.21 1021.43 1021.59 1021.70 1021.79 1021.88 1022.00
1014.66 1015.09 1015.46 1015.72 1015.83 1015.82 1015.72 1015.62 1015.57 1015.62 1015.77 1016.01 1016.30 1016.58 1016.82 1016.99 1017.08 1017.12 1017.15 1017.20 1017.32 1017.52 1017.80 1018.15 1018.53 1018.90 1019.24 1019.53 1019.77 1019.97 1020.15 1020.33 1020.53 1020.74 1020.96 1021.17 1021.34 1021.48 1021.57 1021.63 1021.68 1021.77 1021.92
1014.77 1015.15 1015.48 1015.70 1015.80 1015.80 1015.74 1015.69 1015.70 1015.80 1016.00 1016.28 1016.59 1016.89 1017.13 1017.30 1017.39 1017.43 1017.45 1017.49 1017.59 1017.76 1018.02 1018.34 1018.70 1019.07 1019.42 1019.74 1020.02 1020.26 1020.49 1020.70 1020.91 1021.11 1021.30 1021.45 1021.56 1021.62 1021.64 1021.63 1021.65 1021.72 1021.87
1014.93 1015.26 1015.54 1015.72 1015.80 1015.80 1015.77 1015.77 1015.84 1016.00 1016.25 1016.56 1016.89 1017.21 1017.46 1017.64 1017.74 1017.79 1017.81 1017.85 1017.94 1018.10 1018.33 1018.63 1018.96 1019.32 1019.67 1020.00 1020.31 1020.59 1020.85 1021.10 1021.34 1021.55 1021.72 1021.84 1021.90 1021.89 1021.85 1021.78 1021.75 1021.78 1021.91
1015.10 1015.38 1015.60 1015.73 1015.78 1015.79 1015.79 1015.84 1015.96 1016.17 1016.46 1016.81 1017.17 1017.50 1017.77 1017.96 1018.08 1018.15 1018.19 1018.25 1018.34 1018.50 1018.71 1018.99 1019.30 1019.64 1019.98 1020.31 1020.63 1020.94 1021.24 1021.53 1021.80 1022.02 1022.20 1022.31 1022.34 1022.31 1022.21 1022.10 1022.02 1022.00 1022.10
1015.22 1015.44 1015.60 1015.68 1015.72 1015.73 1015.76 1015.85 1016.03 1016.29 1016.62 1016.99 1017.37 1017.72 1018.00 1018.22 1018.37 1018.47 1018.55 1018.64 1018.77 1018.93 1019.15 1019.42 1019.71 1020.03 1020.35 1020.67 1021.00 1021.33 1021.65 1021.97 1022.27 1022.53 1022.73 1022.85 1022.88 1022.83 1022.71 1022.57 1022.45 1022.39 1022.44
1015.20 1015.37 1015.48 1015.53 1015.56 1015.59 1015.66 1015.81 1016.03 1016.34 1016.71 1017.10 1017.50 1017.86 1018.17 1018.41 1018.60 1018.76 1018.89 1019.04 1019.20 1019.41 1019.64 1019.91 1020.19 1020.49 1020.79 1021.10 1021.41 1021.74 1022.07 1022.41 1022.73 1023.02 1023.25 1023.40 1023.45 1023.41 1023.30 1023.14 1023.00 1022.91 1022.92
1015.02 1015.14 1015.22 1015.26 1015.30 1015.37 1015.50 1015.70 1015.99 1016.34 1016.74 1017.16 1017.57 1017.94 1018.27 1018.55 1018.79 1019.00 1019.21 1019.42 1019.65 1019.91 1020.18 1020.46 1020.74 1021.01 1021.29 1021.57 1021.86 1022.16 1022.49 1022.83 1023.17 1023.48 1023.74 1023.92 1024.00 1023.99 1023.89 1023.75 1023.60 1023.49 1023.46
1014.67 1014.77 1014.83 1014.89 1014.97 1015.10 1015.30 1015.57 1015.92 1016.32 1016.75 1017.19 1017.61 1018.00 1018.35 1018.67 1018.96 1019.23 1019.51 1019.80 1020.11 1020.42 1020.73 1021.04 1021.32 1021.58 1021.83 1022.07 1022.32 1022.59 1022.90 1023.22 1023.55 1023.87 1024.15 1024.35 1024.47 1024.49 1024.43 1024.31 1024.17 1024.07 1024.02
1014.23 1014.31 1014.39 1014.49 1014.63 1014.84 1015.11 1015.46 1015.87 1016.31 1016.78 1017.23 1017.66 1018.06 1018.43 1018.78 1019.12 1019.45 1019.81 1020.17 1020.55 1020.92 1021.28 1021.60 1021.89 1022.14 1022.36 1022.57 1022.78 1023.01 1023.27 1023.57 1023.88 1024.19 1024.46 1024.68 1024.82 1024.88 1024.86 1024.77 1024.67 1024.58 1024.54
1013.81 1013.89 1014.00 1014.15 1014.36 1014.64 1014.99 1015.40 1015.87 1016.35 1016.83 1017.30 1017.73 1018.14 1018.52 1018.89 1019.26 1019.65 1020.06 1020.49 1020.93 1021.36 1021.75 1022.11 1022.40 1022.65 1022.85 1023.03 1023.20 1023.39 1023.61 1023.86 1024.14 1024.43 1024.70 1024.92 1025.08 1025.16 1025.17 1025.13 1025.05 1024.99 1024.97
1013.53 1013.62 1013.76 1013.95 1014.22 1014.56 1014.97 1015.43 1015.92 1016.43 1016.92 1017.38 1017.81 1018.21 1018.59 1018.98 1019.37 1019.80 1020.25 1020.72 1021.20 1021.67 1022.10 1022.48 1022.79 1023.04 1023.24 1023.40 1023.55 1023.71 1023.90 1024.12 1024.36 1024.62 1024.87 1025.08 1025.25 1025.35 1025.38 1025.37 1025.34 1025.30 1025.30
1013.48 1013.58 1013.73 1013.95 1014.25 1014.62 1015.05 1015.53 1016.03 1016.52 1017.00 1017.44 1017.85 1018.24 1018.62 1019.00 1019.41 1019.85 1020.32 1020.82 1021.33 1021.82 1022.27 1022.67 1023.00 1023.27 1023.48 1023.64 1023.80 1023.95 1024.12 1024.32 1024.55 1024.78 1025.01 1025.21 1025.37 1025.47 1025.53 1025.54 1025.53 1025.53 1025.55
1013.72 1013.80 1013.95 1014.16 1014.45 1014.80 1015.21 1015.67 1016.13 1016.59 1017.03 1017.45 1017.83 1018.19 1018.56 1018.93 1019.33 1019.77 1020.25 1020.75 1021.26 1021.77 1022.24 1022.65 1023.01 1023.30 1023.54 1023.74 1023.92 1024.09 1024.27 1024.48 1024.69 1024.91 1025.13 1025.31 1025.47 1025.57 1025.63 1025.66 1025.67 1025.68 1025.71
1014.21 1014.26 1014.36 1014.52 1014.76 1015.05 1015.40 1015.79 1016.19 1016.60 1016.98 1017.35 1017.70 1018.04 1018.38 1018.74 1019.13 1019.56 1020.02 1020.52 1021.02 1021.52 1022.00 1022.43 1022.81 1023.15 1023.43 1023.68 1023.90 1024.12 1024.34 1024.56 1024.78 1025.01 1025.21 1025.39 1025.53 1025.64 1025.70 1025.73 1025.75 1025.78 1025.82
1014.86 1014.85 1014.88 1014.96 1015.10 1015.30 1015.56 1015.85 1016.16 1016.49 1016.82 1017.14 1017.45 1017.76 1018.09 1018.44 1018.81 1019.22 1019.67 1020.14 1020.63 1021.11 1021.59 1022.03 1022.44 1022.81 1023.15 1023.45 1023.74 1024.01 1024.28 1024.54 1024.79 1025.02 1025.23 1025.41 1025.55 1025.65 1025.71 1025.75 1025.78 1025.81 1025.85
1015.55 1015.46 1015.39 1015.37 1015.40 1015.48 1015.62 1015.81 1016.03 1016.27 1016.54 1016.81 1017.10 1017.39 1017.71 1018.04 1018.41 1018.80 1019.22 1019.67 1020.13 1020.59 1021.06 1021.50 1021.93 1022.34 1022.72 1023.08 1023.42 1023.75 1024.07 1024.37 1024.65 1024.90 1025.12 1025.31 1025.45 1025.56 1025.63 1025.68 1025.72 1025.76 1025.81
Thickness
5795 5793 5790 5786 5781 5775 5771 5766 5762 5758 5754 5750 5746 5743 5741 5741 5740 5739 5738 5738 5737 5736 5735 5734 5734 5733 5732 5731 5731 5730 5728 5727 5726 5724 5722 5724 5726 5726 5726 5725 5725 5724 5723
5793 5791 5789 5786 5781 5776 5773 5768 5764 5760 5757 5754 5750 5747 5744 5743 5742 5740 5739 5738 5737 5736 5735 5734 5734 5734 5733 5731 5731 5729 5727 5726 5726 5723 5718 5716 5719 5723 5726 5725 5724 5724 5723
5793 5790 5788 5786 5782 5777 5774 5771 5766 5762 5759 5756 5751 5748 5744 5742 5740 5739 5739 5739 5738 5737 5736 5735 5734 5734 5733 5732 5731 5730 5727 5724 5724 5724 5720 5714 5712 5716 5721 5723 5723 5723 5722
5797 5793 5790 5786 5783 5780 5777 5772 5767 5763 5760 5757 5752 5748 5743 5740 5740 5739 5739 5739 5738 5737 5736 5735 5735 5734 5734 5733 5732 5731 5729 5726 5723 5723 5722 5721 5719 5714 5713 5718 5720 5721 5720
5802 5797 5793 5788 5785 5781 5777 5772 5768 5763 5760 5757 5753 5749 5745 5743 5741 5740 5739 5738 5738 5737 5737 5736 5735 5735 5734 5733 5732 5731 5730 5728 5725 5723 5721 5719 5717 5716 5712 5710 5714 5716 5718
5804 5799 5795 5790 5785 5781 5777 5772 5767 5763 5760 5757 5753 5750 5746 5744 5741 5740 5738 5737 5737 5737 5737 5736 5735 5734 5734 5733 5732 5731 5730 5728 5726 5724 5723 5720 5717 5715 5712 5710 5710 5711 5715
5805 5799 5794 5789 5784 5780 5776 5771 5767 5763 5760 5757 5753 5751 5748 5745 5742 5740 5739 5737 5736 5736 5736 5736 5735 5734 5734 5733 5732 5730 5729 5728 5726 5724 5722 5721 5719 5718 5715 5711 5709 5708 5710
5806 5801 5796 5791 5786 5782 5778 5772 5767 5763 5760 5757 5754 5751 5748 5746 5743 5741 5739 5737 5736 5735 5736 5735 5735 5734 5733 5732 5731 5729 5728 5726 5724 5723 5721 5719 5718 5717 5715 5712 5708 5705 5704
5807 5803 5798 5794 5788 5783 5779 5774 5768 5764 5760 5757 5754 5750 5748 5746 5743 5741 5739 5737 5736 5735 5734 5733 5733 5732 5731 5731 5729 5727 5726 5724 5722 5721 5719 5717 5716 5716 5714 5712 5710 5704 5700
5807 5803 5799 5795 5789 5784 5779 5775 5769 5764 5761 5757 5754 5750 5748 5746 5744 5741 5738 5736 5735 5733 5732 5731 5730 5729 5729 5728 5727 5725 5723 5722 5720 5718 5716 5715 5714 5713 5711 5710 5708 5706 5701
5806 5803 5799 5795 5790 5784 5779 5774 5769 5765 5761 5757 5753 5750 5747 5745 5742 5740 5738 5735 5733 5731 5729 5728 5727 5726 5725 5724 5723 5722 5721 5719 5717 5715 5714 5712 5711 5709 5708 5706 5704 5702 5699
5806 5803 5798 5793 5787 5782 5778 5774 5770 5766 5762 5757 5753 5749 5746 5743 5740 5738 5736 5734 5731 5729 5727 5725 5724 5723 5721 5720 5719 5718 5717 5715 5713 5711 5710 5708 5707 5705 5703 5701 5699 5697 5694
5803 5800 5796 5791 5786 5782 5778 5774 5770 5766 5762 5757 5752 5748 5744 5741 5738 5735 5733 5730 5728 5726 5724 5723 5721 5719 5718 5716 5715 5714 5712 5710 5708 5706 5704 5703 5701 5698 5697 5695 5693 5691 5689
5800 5796 5792 5789 5785 5782 5778 5774 5770 5766 5761 5756 5750 5746 5742 5739 5735 5732 5729 5726 5724 5722 5720 5718 5716 5715 5713 5712 5710 5709 5707 5705 5703 5701 5698 5696 5694 5692 5690 5688 5686 5684 5680
5796 5794 5791 5787 5784 5780 5776 5773 5768 5764 5759 5754 5748 5744 5740 5736 5733 5729 5726 5723 5720 5717 5715 5713 5711 5709 5708 5706 5705 5703 5701 5698 5696 5693 5691 5689 5687 5685 5683 5680 5677 5675 5671
5796 5793 5790 5786 5782 5778 5774 5770 5766 5761 5756 5751 5745 5741 5737 5733 5729 5725 5722 5718 5715 5712 5710 5707 5705 5702 5701 5699 5698 5696 5693 5691 5688 5685 5682 5680 5678 5675 5673 5671 5668 5666 5662
5795 5791 5788 5785 5780 5776 5772 5767 5763 5759 5753 5746 5742 5738 5734 5729 5725 5722 5718 5713 5710 5708 5705 5702 5698 5695 5692 5691 5690 5688 5686 5683 5679 5676 5674 5671 5668 5665 5663 5660 5658 5655 5652
5793 5789 5786 5782 5778 5774 5770 5764 5760 5754 5748 5742 5738 5734 5730 5725 5720 5716 5712 5707 5703 5701 5697 5694 5691 5688 5685 5683 5682 5680 5678 5674 5670 5667 5664 5661 5658 5656 5654 5652 5649 5645 5642
5791 5788 5785 5781 5775 5771 5766 5760 5754 5749 5743 5738 5733 5729 5726 5721 5716 5711 5706 5701 5697 5693 5689 5686 5683 5680 5677 5676 5674 5672 5669 5665 5661 5658 5655 5652 5649 5647 5645 5643 5639 5636 5632
5786 5783 5779 5774 5769 5764 5760 5754 5747 5742 5737 5732 5728 5724 5720 5715 5710 5705 5700 5695 5691 5686 5682 5678 5674 5672 5669 5667 5666 5664 5661 5657 5652 5649 5645 5643 5640 5637 5635 5632 5630 5626 5622
5781 5777 5771 5766 5762 5758 5753 5747 5741 5736 5732 5727 5721 5717 5713 5709 5704 5698 5693 5688 5684 5679 5674 5670 5666 5663 5661 5659 5657 5655 5652 5648 5644 5640 5636 5632 5630 5628 5625 5622 5619 5615 5612
5772 5768 5762 5757 5753 5750 5746 5740 5734 5730 5726 5722 5715 5709 5705 5702 5697 5691 5685 5680 5676 5671 5666 5661 5657 5654 5651 5650 5647 5645 5643 5639 5635 5630 5627 5623 5621 5618 5615 5612 5609 5606 5603
5761 5758 5753 5749 5745 5742 5739 5733 5727 5723 5718 5713 5707 5702 5696 5692 5687 5682 5677 5672 5668 5663 5658 5654 5650 5646 5642 5640 5638 5636 5633 5630 5626 5621 5618 5615 5612 5609 5605 5602 5599 5596 5593
5750 5747 5744 5739 5735 5732 5729 5725 5720 5716 5710 5704 5698 5693 5688 5682 5676 5672 5668 5665 5660 5656 5652 5647 5642 5638 5635 5632 5629 5626 5623 5621 5617 5612 5609 5606 5602 5599 5595 5592 5588 5585 5582
5737 5736 5733 5730 5726 5723 5720 5716 5712 5708 5702 5696 5690 5684 5679 5674 5667 5662 5658 5655 5651 5648 5644 5639 5635 5631 5627 5623 5621 5618 5615 5611 5608 5604 5600 5596 5592 5588 5584 5581 5577 5574 5572
5725 5724 5723 5720 5717 5714 5711 5707 5703 5699 5695 5688 5682 5676 5670 5665 5659 5654 5647 5643 5641 5638 5635 5631 5627 5623 5619 5616 5613 5610 5606 5602 5599 5595 5590 5585 5581 5577 5573 5570 5567 5564 5560